NOAA 16 DEB

Satellite information

Favourite Embed

Satellite Type and Status

DEBRISIN ORBIT

Key statistics

Satellite NOAA 16 DEB at a glance.

Uptime

9161

Days in orbit

Revolutions

≈ 14.3

Per day

Orbit

SSO

Sun Synchronous Orbit

Inclination

98.7

Latest

Satellite identification and parameters

Extended collection of information and parameters for NOAA 16 DEB.

Object identification

Identified? True

Debris? True

Object name: NOAA 16 DEB

International designator: 2000-055LJ

Object number (NORAD): 41429

Object ID (CCSDS): 41429

Country: UNITED STATES OF AMERICA (US)

Current information (Y/N): Y

RCS size: SMALL

Orbital parameters

Period: 100.844 minutes

Inclination: 98.7204 deg

SMA: 7176.757 km

Apoapsis: 809.311 km

Periapsis: 787.932 km

RAAN: 15.2716 deg

Eccentricy: 0.00148942

Argument of periapsis: 320.5075 deg

Mean anomaly: 39.5019 deg

Mean motion: 14.2794159 rev/day

Mean motion (dot): 0.00006721 rev/day2

B* drag term: 0.0027249115 1/REarth

Two-line elements (TLE)

Creation date: Oct. 21, 2025, 3:26 a.m.

Reference frame: TEME

Reference center: EARTH

Epoch: Oct. 20, 2025, 4:17 p.m. UTC

TLE line 0: 0 NOAA 16 DEB

TLE line 1: 1 41429U 00055LJ 25293.67894976 .00006721 00000-0 27249-2 0 9999

TLE line 2: 2 41429 98.7204 15.2716 0014894 320.5075 39.5019 14.27941590498888

Live tracking on map

Real-time ground track for satellite NOAA 16 DEB.

In-orbit conjunctions

There are no conjunctions computed for NOAA 16 DEB, at the moment. Check back to stay up to date, as we update our databases every day.

Go to all conjunctions

Associated space launch

The NOAA K, L and M POES satellites begin the fifth generation of improved environmental monitoring in support of NOAA missions. The instrument payload has significant improvements and additions/deletions. The instrument changes have effected the spacecraft subsystems and data formats.

NOAA 16 DEB was lifted into orbit during the mission ‘Titan II SLV | NOAA 16’, on board a Titan II SLV space rocket.

The launch took place on Sept. 21, 2000, 10:22 a.m. from Space Launch Complex 4W.

For more information about the launch, click the button.

Launch to space Titan II SLV | NOAA 16
Titan II SLV | NOAA 16

Agency: N/A

Status: Launch Successful

Launch date: Sept. 21, 2000, 10:22 a.m. UTC

Rocket: Titan II SLV

Launch pad: Space Launch Complex 4W

Location: Vandenberg SFB, CA, USA

...

Latest news about this satellite

There are no fresh news available about this satellite. Check back as we update our databases every day.


Newsletter sign-up

Weekly statistics, charts and insights to help you stay on top of the space industry.